Location: Arrodets-la-Barthe
(43.0306°N, 0.2829°E)
Time: 08:07:19
(UTC+00:00)

CUBEBUG 2 - Pass Details

Date: 03 April 2023
Orbit: 577 x 685 km, 97.8° (Epoch: 03 June)

Event Time Altitude Azimuth Distance (km) Brightness Sun altitude
Rises 04:03:05 0° 353° (N) 3,062 ? -17.5°
Reaches altitude 10° 04:06:29 10° 327° (NNW) 2,129 ? -16.9°
Maximum altitude 04:08:37 13° 300° (WNW) 1,907 ? -16.5°
Enters shadow 04:08:38 13° 300° (WNW) 1,907 ? -16.5°
